Regional Weather Roundup
Issued by NWS

Home | Current Version | Previous Version | Graphics & Text | Print | Product List | Glossary On
Versions: 1 2 3 4 5 6 7 8 9 10 11 12 13 14 15 16 17 18 19 20 21 22 23 24 25 26 27 28 29 30 31 32 33 34 35 36 37 38 39 40 41 42 43 44 45 46 47 48 49 50
000
ASUS45 KSLC 240310
RWRUT

UTAH REGIONAL WEATHER ROUNDUP
NATIONAL WEATHER SERVICE SALT LAKE CITY UT
900 PM MDT SAT MAY 23 2015

UTZ001>011-023>025-240400-

NORTHERN UTAH

CITY           SKY/WX    TMP DP  RH WIND       PRES   REMARKS
BRIGHAM CITY   PTCLDY    58  44  58 CALM      29.93S
HILL AFB       MOCLDY    51  44  79 E8        29.94S
LOGAN          CLEAR     53  43  68 S7        29.93S
OGDEN          MOCLDY    52  45  77 S6        29.93R
PROVO AIRPORT  MOCLDY    55  43  62 SE12      29.94R
SALT LAKE CITY PTCLDY    57  43  59 NW8       29.93R
VERNAL         MOCLDY    49  39  68 S7        29.95R
WENDOVER       CLOUDY    55  48  76 CALM      29.95R
HEBER CITY     MOCLDY    50  37  62 CALM      29.96R
WEST JORDAN    CLEAR     54  45  71 NW6       29.95R

$$

UTZ012>022-026-027-240400-

SOUTHERN/CENTRAL UTAH

CITY           SKY/WX    TMP DP  RH WIND       PRES   REMARKS
BLANDING       CLOUDY    46  44  91 SE3       30.07S
BRYCE CANYON   LGT RAIN  41  38  89 W9        30.02R
CEDAR CITY     RAIN      46  44  93 N5        29.98R FOG
DELTA          MOCLDY    51  42  72 SE7       29.95S
HANKSVILLE     CLOUDY    52  43  71 SW3       29.96S
MILFORD        LGT RAIN  50  47  89 S13       29.95S
MOAB/CYNLANDS  MOCLDY    54  45  71 SE5       29.92R
PRICE          PTCLDY    49  36  61 CALM      29.97R
ST GEORGE      MOCLDY    64  45  48 N5        29.91S
KANAB          CLOUDY    52  52 100 CALM      30.00S

$$

REGIONAL REPORTS     COLORADO/ARIZONA

CITY           SKY/WX    TMP DP  RH WIND       PRES   REMARKS
CRAIG, CO      CLOUDY    45  37  73 SE7       30.00R
GRAND JUNCTION MOCLDY    48  43  82 E7        29.97R
RIFLE          CLOUDY    52  36  54 S7        29.98R
MONTROSE       CLOUDY    45  42  89 W3        30.03R
CORTEZ         CLOUDY    45  42  89 NE6       30.02S
PAGE, AZ       CLOUDY    54  50  86 SE3       29.95S
GRAND CANYON   CLOUDY    47  43  86 SW3       30.04S
KINGMAN        MOCLDY    67  37  33 SW17      29.92S
FLAGSTAFF      CLOUDY    49  34  56 SW9       30.07S

$$

REGIONAL REPORTS    NEVADA/IDAHO/WYOMING

CITY           SKY/WX    TMP DP  RH WIND       PRES   REMARKS
LAS VEGAS, NV  MOCLDY    76  42  29 W10       29.77S
ELY            CLOUDY    48  44  86 W8        30.00R
ELKO           CLOUDY    52  49  89 N6        29.99S
POCATELLO, ID  LGT RAIN  52  51  97 NE7       29.98R
BURLEY         CLOUDY    53  49  86 NE5       29.94R
EVANSTON, WY   PTCLDY    42  37  82 SW6       30.00R
ROCK SPRINGS   CLOUDY    46  36  68 E15       29.97R
KEMMERER       PTCLDY    43  37  81 NW5       30.00R

$$



USA.gov is the U.S. government's official web portal to all federal, state and local government web resources and services.